Location: Unspecified
(0.0000°N, 0.0000°E)
Time: 08:10:55
(UTC+02:00)

SJ-6B - Visible Passes

Search period start: 24 April 2014 00:00
Search period end: 04 May 2014 00:00
Orbit: 519 x 603 km, 97.8° (Epoch: 23 April)

Date Brightness Start Highest point End Pass type
(mag) Time Alt. Az. Time Alt. Az. Time Alt. Az.
24 Apr 5.0 07:12:19 10° NE 07:15:56 31° ESE 07:19:38 10° SSE visible
25 Apr 5.0 07:11:25 10° NE 07:15:01 30° ESE 07:18:41 10° SSE visible
26 Apr 5.1 07:10:31 10° NE 07:14:05 29° ESE 07:17:43 10° SSE visible
27 Apr 5.2 07:09:36 10° NE 07:13:09 28° ESE 07:16:45 10° SSE visible
28 Apr 5.2 07:08:41 10° NE 07:12:12 27° ESE 07:15:47 10° SSE visible
29 Apr 5.3 07:07:46 10° NE 07:11:15 26° ESE 07:14:47 10° SSE visible
30 Apr 5.3 07:06:50 10° NE 07:10:17 25° ESE 07:13:47 10° SSE visible
30 Apr 6.3 20:44:19 10° WSW 20:44:39 10° WSW 20:44:59 10° W visible
01 May 5.4 07:05:54 10° NE 07:09:19 25° ESE 07:12:46 10° SSE visible
01 May 6.2 20:42:53 10° WSW 20:43:40 11° WSW 20:44:26 10° W visible
02 May 5.4 07:04:57 10° NE 07:08:20 24° ESE 07:11:44 10° SSE visible
02 May 6.1 20:41:37 10° WSW 20:42:39 11° WSW 20:43:42 10° W visible
03 May 5.5 07:04:00 10° NE 07:07:20 23° ESE 07:10:42 10° SSE visible
03 May 6.0 20:40:24 10° WSW 20:41:39 11° WSW 20:42:53 10° W visible
